Regional Weather Roundup
Issued by NWS

Home | Current Version | Previous Version | Text Only | Print | Product List | Glossary On
Versions: 1 2 3 4 5 6 7 8 9 10 11 12 13 14 15 16 17 18 19 20 21 22 23 24 25 26 27 28 29 30 31 32 33 34 35 36 37 38 39 40 41 42 43 44 45 46 47 48 49 50
000
ASUS43 KOAX 290710
RWRNE

WEATHER ROUNDUP FOR NEBRASKA
NATIONAL WEATHER SERVICE OMAHA NE
200 AM CDT FRI MAY 29 2015

NOTES: SATELLITE DATA IS BEING USED TO AUGMENT CLOUD COVER ABOVE
       12000 FEET.
       "FAIR" INDICATES FEW OR NO CLOUDS BELOW 12,000 FEET WITH NO
       SIGNIFICANT WEATHER AND/OR OBSTRUCTIONS TO VISIBILITY.

  * THESE STATIONS DO NOT REPORT WEATHER SUCH AS RAIN...SNOW OR FOG.

NEZ001>004-019>022-054>056-290800-
NEBRASKA PANHANDLE

CITY           SKY/WX    TMP DP  RH WIND       PRES   REMARKS
SCOTTSBLUFF    CLOUDY    54  52  93 W7        30.06F
ALLIANCE       CLOUDY    54  53  97 NW8       30.03S
CHADRON        CLOUDY    54  52  93 SW6       30.04S
KIMBALL          N/A    N/A N/A N/A MISG        N/A
SIDNEY         LGT RAIN  53  50  89 W10       30.07F
$$

NEZ057>060-069>072-079>082-290800-
SOUTHWEST NEBRASKA

CITY           SKY/WX    TMP DP  RH WIND       PRES   REMARKS
NORTH PLATTE   CLOUDY    57  53  86 VRB3      29.95F
IMPERIAL       CLOUDY    55  51  86 NW3       30.00F
LEXINGTON      CLOUDY    59  56  91 W6        29.97S
MCCOOK         CLOUDY    57  54  89 W12       30.00R
OGALLALA       CLOUDY    56  55  95 W5        30.00F
$$

NEZ005>010-023>029-035>040-094-290800-
NORTH CENTRAL NEBRASKA

CITY           SKY/WX    TMP DP  RH WIND       PRES   REMARKS
VALENTINE      CLOUDY    57  55  93 W12       29.94S
AINSWORTH      CLOUDY    59  57  91 NW8       29.92R
BROKEN BOW     CLOUDY    60  57  89 S5        29.94R
O`NEILL        CLOUDY    60  58  95 W3        29.86R
ORD            CLOUDY    58  56  93 SW8       29.92R
THEDFORD       CLOUDY    59  56  91 NW6       29.96R
$$

NEZ041-046>049-061>064-073>077-083>087-290800-
SOUTH CENTRAL NEBRASKA

CITY           SKY/WX    TMP DP  RH WIND       PRES   REMARKS
GRAND ISLAND   LGT RAIN  62  59  90 SW6       29.92S
AURORA         LGT RAIN  62  61  96 CALM      29.92S
HASTINGS       LGT RAIN  62  59  90 NW6       29.91F
HEBRON         CLOUDY    62  58  88 CALM      29.90R
HOLDREGE       CLOUDY    59  53  80 W3        29.94S
KEARNEY *      CLOUDY    61  55  82 W6        29.93R
YORK           CLOUDY    64  59  82 SE3       29.91F
$$

NEZ011>018-030>034-042>045-290800-
NORTHEAST NEBRASKA

CITY           SKY/WX    TMP DP  RH WIND       PRES   REMARKS
NORFOLK        CLOUDY    67  62  84 S12       29.87S
ALBION         DRIZZLE   64  58  80 W5        29.88F
BLAIR          MOCLDY    66  62  87 S15G21    29.91F
COLUMBUS *     CLOUDY    64  57  77 S6        29.91F
FREMONT        CLOUDY    67  65  91 SE8       29.91S
TEKAMAH        MOCLDY    65  63  93 S9        29.90S
WAYNE          CLOUDY    66  64  93 S13       29.87F
$$

NEZ050>053-065>068-078-088>093-290800-
SOUTHEAST NEBRASKA

CITY           SKY/WX    TMP DP  RH WIND       PRES   REMARKS
LINCOLN        LGT RAIN  67  65  93 S6        29.92F
OMAHA EPPLEY   CLOUDY    67  63  87 S14       29.92S
BEATRICE       MOCLDY    65  59  82 W3        29.92F
FALLS CITY     MOCLDY    66  62  87 S8        29.94S
NEBRASKA CITY  MOCLDY    65  64  95 S9        29.93F
PLATTSMOUTH    CLOUDY    66  62  86 S14       29.92F
$$

NEZ044-045-051>053-067-290800-
OMAHA AREA

CITY           SKY/WX    TMP DP  RH WIND       PRES   REMARKS
OMAHA EPPLEY   CLOUDY    67  63  87 S14       29.92S
BLAIR          MOCLDY    66  62  87 S15G21    29.91F
FREMONT        CLOUDY    67  65  91 SE8       29.91S
MILLARD        MOCLDY    67  64  88 SE9       29.91F
OFFUTT AFB     CLOUDY    66  64  90 SE9       29.91F
PLATTSMOUTH    CLOUDY    66  62  86 S14       29.92F
WAHOO          CLOUDY    67  64  90 S6        29.92S
$$


USA.gov is the U.S. government's official web portal to all federal, state and local government web resources and services.